Weather History for KBLU - April, 2013

Change the Weather History Date:

Thursday, April 4, 2013

  Actual Average Record
Temperature  
Mean Temperature 42 °F -  
Max Temperature 50 °F 51 °F 70 °F (1960)
Min Temperature 35 °F 36 °F 24 °F (1955)
Degree Days  
Heating Degree Days 22    
Moisture  
Dew Point 42 °F    
Average Humidity 96    
Maximum Humidity 100    
Minimum Humidity 77    
Precipitation  
Precipitation 0.97 in - - ()
Sea Level Pressure  
Sea Level Pressure 30.08 in    
Wind  
Wind Speed 8 mph (South)    
Max Wind Speed 16 mph    
Max Gust Speed 23 mph    
Visibility 3 miles    
Events Fog , Rain    
Averages and records for this station are not official NWS values.
T = Trace of Precipitation, MM = Missing Value Source: NWS Daily Summary

Daily Weather History Graph

Daily Weather History Graph

Search for Another Location

Airport or City:

Trip Planner

Search our weather history database for the weather conditions in past years. The results will help you decide how hot, cold, wet, or windy it might be!

Date:

Astronomy

Apr. 04, 2013 Rise Set
Actual Time 6:42 AM PDT 7:29 PM PDT
Civil Twilight 6:14 AM PDT 7:57 PM PDT
Nautical Twilight 5:42 AM PDT 8:29 PM PDT
Astronomical Twilight 5:09 AM PDT 9:02 PM PDT
Moon 3:10 AM PDT (4/4) 1:55 PM PDT (4/4)
Length of Visible Light 13h 42m
Length of Day
12h 47m
Waning Crescent, 32% of the Moon is Illuminated
Apr 4
Waning Crescent
Apr 10
New
Apr 18
First Quarter
Apr 25
Full
May 2
Last Quarter

Hourly Weather History & Observations

Time (PDT) Temp. Windchill Dew Point Humidity Pressure Visibility Wind Dir Wind Speed Gust Speed Precip Events Conditions
12:52 AM 50.0 °F - 43.0 °F 77% 29.98 in 10.0 mi SE 6.9 mph - N/A   Clear
1:52 AM 50.0 °F - 43.0 °F 77% 29.95 in 10.0 mi SSE 6.9 mph - N/A   Clear
2:52 AM 46.9 °F - 42.1 °F 83% 29.96 in 10.0 mi SE 6.9 mph - N/A   Overcast
2:59 AM 46.4 °F 43.5 °F 42.8 °F 87% 30.09 in 10.0 mi SE 5.8 mph - N/A   Overcast
3:52 AM 46.0 °F - 43.0 °F 89% 29.93 in 10.0 mi Calm Calm - N/A   Mostly Cloudy
4:09 AM 46.4 °F 44.3 °F 44.6 °F 93% 30.07 in 10.0 mi SE 4.6 mph - N/A   Mostly Cloudy
4:48 AM 48.2 °F - 42.8 °F 82% 30.06 in 10.0 mi South 10.4 mph - N/A   Overcast
4:52 AM 48.0 °F - 42.1 °F 80% 29.91 in 10.0 mi South 8.1 mph 16.1 mph N/A   Overcast
5:04 AM 46.4 °F 42.4 °F 41.0 °F 81% 30.06 in 10.0 mi SSE 8.1 mph 16.1 mph N/A   Overcast
5:52 AM 46.9 °F - 41.0 °F 80% 29.91 in 10.0 mi South 11.5 mph - N/A   Overcast
6:27 AM 46.4 °F 41.1 °F 41.0 °F 81% 30.06 in 10.0 mi South 11.5 mph - 0.00 in Rain Light Rain
6:37 AM 44.6 °F 39.2 °F 42.8 °F 93% 30.06 in 10.0 mi South 10.4 mph - 0.00 in Rain Light Rain
6:47 AM 44.6 °F 39.2 °F 42.8 °F 93% 30.06 in 6.0 mi South 10.4 mph - 0.01 in Rain Light Rain
6:52 AM 44.1 °F 39.5 °F 44.1 °F 100% 29.94 in 1.8 mi South 8.1 mph - 0.03 in Rain Heavy Rain
6:54 AM 44.6 °F 38.8 °F 42.8 °F 93% 30.06 in 1.2 mi South 11.5 mph - 0.00 in Rain Light Rain
7:00 AM 44.6 °F 38.8 °F 44.6 °F 100% 30.06 in 0.2 mi South 11.5 mph - 0.02 in Fog , Rain Heavy Rain
7:14 AM 39.2 °F 32.5 °F 39.2 °F 100% 30.07 in 0.2 mi SW 10.4 mph 20.7 mph 0.06 in Fog , Rain Rain
7:52 AM 36.0 °F 30.3 °F 35.1 °F 97% 30.03 in 0.2 mi WSW 6.9 mph - 0.15 in Fog , Rain Rain
8:31 AM 35.6 °F - 35.6 °F 100% 30.11 in 0.5 mi Calm Calm - 0.04 in Fog , Rain Light Rain
8:35 AM 35.6 °F 32.8 °F 35.6 °F 100% 30.12 in 1.8 mi SSE 3.5 mph - 0.05 in Rain Light Rain
8:41 AM 37.4 °F - 35.6 °F 93% 30.11 in 0.8 mi Calm Calm - 0.06 in Rain Rain
8:52 AM 37.0 °F 33.3 °F 37.0 °F 100% 30.03 in 0.2 mi Variable 4.6 mph - 0.07 in Fog , Rain Light Rain
9:33 AM 39.2 °F 34.2 °F 37.4 °F 93% 30.11 in 1.0 mi SE 6.9 mph 21.9 mph 0.08 in Rain Light Rain
9:36 AM 39.2 °F 33.0 °F 39.2 °F 100% 30.11 in 2.5 mi SE 9.2 mph 21.9 mph 0.08 in Rain Light Rain
9:44 AM 39.2 °F 33.6 °F 39.2 °F 100% 30.11 in 3.0 mi SSE 8.1 mph - 0.09 in Rain Light Rain
9:52 AM 39.9 °F 32.9 °F 39.9 °F 100% 30.02 in 4.0 mi SE 11.5 mph 19.6 mph 0.10 in Rain Light Rain
10:16 AM 41.0 °F 33.9 °F 41.0 °F 100% 30.12 in 4.0 mi South 12.7 mph 17.3 mph 0.01 in Rain Light Rain
10:30 AM 42.8 °F 35.4 °F 41.0 °F 93% 30.12 in 1.5 mi South 15.0 mph 21.9 mph 0.03 in Rain Light Rain
10:34 AM 42.8 °F 36.2 °F 41.0 °F 93% 30.12 in 0.2 mi SSE 12.7 mph 21.9 mph 0.03 in Fog , Rain Light Rain
10:52 AM 42.1 °F 34.9 °F 42.1 °F 100% 30.04 in 0.2 mi SSE 13.8 mph 21.9 mph 0.07 in Fog , Rain Rain
11:52 AM 43.0 °F 36.0 °F 42.1 °F 97% 30.04 in 0.2 mi South 13.8 mph 21.9 mph 0.11 in Fog , Rain Light Rain
12:52 PM 44.1 °F 37.4 °F 43.0 °F 96% 30.02 in 0.2 mi South 13.8 mph 23.0 mph 0.02 in Fog , Rain Light Rain
1:47 PM 44.6 °F 38.1 °F 44.6 °F 100% 30.11 in 0.2 mi South 13.8 mph 19.6 mph 0.11 in Fog , Rain Rain
1:52 PM 44.1 °F 37.7 °F 44.1 °F 100% 30.02 in 0.2 mi South 12.7 mph 19.6 mph 0.13 in Fog , Rain Rain
2:14 PM 44.6 °F 39.7 °F 44.6 °F 100% 30.11 in 0.2 mi South 9.2 mph 19.6 mph 0.09 in Fog , Rain Rain
2:52 PM 44.1 °F 38.1 °F 44.1 °F 100% 30.02 in 0.5 mi South 11.5 mph 18.4 mph 0.13 in Fog , Rain Light Rain
3:01 PM 44.6 °F 39.7 °F 44.6 °F 100% 30.11 in 0.2 mi South 9.2 mph 17.3 mph 0.00 in Fog , Rain Light Rain
3:52 PM 44.1 °F 38.6 °F 44.1 °F 100% 30.03 in 0.2 mi SSW 10.4 mph 18.4 mph 0.06 in Fog , Rain Light Rain
4:52 PM 44.1 °F 38.1 °F 43.0 °F 96% 30.02 in 0.2 mi SSW 11.5 mph 20.7 mph 0.04 in Fog , Rain Light Rain
5:44 PM 42.8 °F 36.6 °F 42.8 °F 100% 30.11 in 0.2 mi South 11.5 mph 20.7 mph 0.04 in Fog Fog
5:52 PM 43.0 °F 36.8 °F 42.1 °F 97% 30.03 in 0.2 mi SSW 11.5 mph 21.9 mph 0.05 in Fog , Rain Light Rain
6:52 PM 43.0 °F 35.4 °F 43.0 °F 100% 30.03 in 0.2 mi South 16.1 mph 20.7 mph 0.01 in Fog , Rain Light Rain
7:52 PM 43.0 °F 37.7 °F 43.0 °F 100% 30.06 in 0.2 mi South 9.2 mph - 0.00 in Fog Fog
8:33 PM 42.8 °F 38.0 °F 42.8 °F 100% 30.11 in 0.8 mi South 8.1 mph - N/A   Mist
8:42 PM 42.8 °F 37.0 °F 42.8 °F 100% 30.11 in 0.2 mi South 10.4 mph - N/A Fog Fog
8:52 PM 42.1 °F 37.1 °F 42.1 °F 100% 30.08 in 0.5 mi SSW 8.1 mph - N/A Fog Fog
9:03 PM 42.8 °F 38.6 °F 42.8 °F 100% 30.12 in 0.5 mi SSW 6.9 mph - N/A Fog Fog
9:11 PM 42.8 °F 40.1 °F 42.8 °F 100% 30.12 in 1.5 mi SSW 4.6 mph - N/A   Overcast
9:13 PM 42.8 °F 38.6 °F 42.8 °F 100% 30.12 in 3.0 mi SSW 6.9 mph - N/A   Overcast
9:17 PM 42.8 °F 38.6 °F 42.8 °F 100% 30.12 in 1.8 mi South 6.9 mph - N/A   Overcast
9:20 PM 42.8 °F 37.5 °F 42.8 °F 100% 30.12 in 0.8 mi South 9.2 mph - N/A   Mist
9:24 PM 42.8 °F 38.0 °F 42.8 °F 100% 30.12 in 0.2 mi South 8.1 mph - N/A Fog Fog
9:52 PM 42.1 °F 36.6 °F 42.1 °F 100% 30.09 in 0.2 mi SSW 9.2 mph 16.1 mph N/A Fog Fog
9:59 PM 42.8 °F 38.6 °F 41.0 °F 93% 30.14 in 0.8 mi SSW 6.9 mph - N/A   Mist
10:05 PM 42.8 °F 38.0 °F 41.0 °F 93% 30.14 in 1.5 mi South 8.1 mph - N/A   Overcast
10:09 PM 42.8 °F 38.6 °F 41.0 °F 93% 30.13 in 3.0 mi SSW 6.9 mph - N/A   Overcast
10:16 PM 42.8 °F 38.0 °F 42.8 °F 100% 30.13 in 1.5 mi South 8.1 mph - N/A   Overcast
10:18 PM 42.8 °F 37.5 °F 42.8 °F 100% 30.13 in 0.8 mi South 9.2 mph - 0.00 in Rain Light Rain
10:26 PM 42.8 °F 37.0 °F 42.8 °F 100% 30.13 in 0.2 mi South 10.4 mph - 0.00 in Fog , Rain Light Rain
10:43 PM 42.8 °F 37.5 °F 41.0 °F 93% 30.14 in 0.5 mi SSW 9.2 mph - 0.00 in Fog Fog
10:52 PM 42.1 °F 36.6 °F 41.0 °F 96% 30.08 in 0.5 mi SSW 9.2 mph - 0.00 in Fog Fog
11:10 PM 41.0 °F 34.3 °F 41.0 °F 100% 30.14 in 1.5 mi SSW 11.5 mph 17.3 mph N/A   Overcast
11:12 PM 41.0 °F 35.8 °F 41.0 °F 100% 30.14 in 3.0 mi SSW 8.1 mph 17.3 mph N/A   Overcast
11:15 PM 41.0 °F 35.8 °F 41.0 °F 100% 30.14 in 1.8 mi SSW 8.1 mph 17.3 mph N/A   Overcast
11:18 PM 42.8 °F 38.6 °F 41.0 °F 93% 30.14 in 0.8 mi South 6.9 mph 16.1 mph N/A   Mist
11:40 PM 41.0 °F 35.8 °F 41.0 °F 100% 30.14 in 1.5 mi South 8.1 mph - N/A   Overcast
11:43 PM 41.0 °F 35.2 °F 41.0 °F 100% 30.14 in 3.0 mi SSW 9.2 mph - N/A   Mostly Cloudy
11:50 PM 41.0 °F 35.2 °F 41.0 °F 100% 30.14 in 1.8 mi SW 9.2 mph 16.1 mph N/A   Overcast
11:52 PM 41.0 °F 35.2 °F 41.0 °F 100% 30.09 in 1.8 mi SSW 9.2 mph 16.1 mph N/A   Overcast
11:56 PM 41.0 °F 35.8 °F 41.0 °F 100% 30.14 in 3.0 mi SSW 8.1 mph 16.1 mph N/A   Overcast